Location: Kershaw
(34.5481°N, 80.5823°W)
Time: 03:47:21
(UTC+00:00)

Tiros 1 despin weight - Pass Details

Date: 08 October 2022
Orbit: 590 x 637 km, 48.2° (Epoch: 30 November)

Event Time Altitude Azimuth Distance (km) Brightness Sun altitude
Rises 21:17:04 0° 294° (WNW) 2,838 ? 19.0°
Reaches altitude 10° 21:20:18 10° 318° (NW) 1,946 ? 18.4°
Maximum altitude 21:22:50 15° 353° (N) 1,665 ? 17.9°
Drops below altitude 10° 21:25:23 10° 28° (NNE) 1,965 ? 17.4°
Sets 21:28:40 0° 52° (NE) 2,882 ? 16.8°
